FLOCK 4Y 14

导读

FLOCK 4Y 14是美国Planet公司FLOCK-4y批次的一颗SuperDove商业遥感卫星,于2023年1月3日发射升空,属于 Planet 鸽群遥感星座的补充卫星。它配备八个光谱波段,可提供高质量对地观测影像,服务农业、林业等多行业的资源监测与决策支持,提升了星座的在轨容量与全球观测能力。

Basic Information
目录编号:
55024
目录名称:
FLOCK 4Y 14
国际标识:
2023-001R
轨道中心:
EARTH
卫星名称:
FLOCK 4Y 14
卫星全名:
--
卫星状态:
已陨落 最后检测时间 2025-09-21
发射日期:
2023-01-03 UTC
国别 :
美国 (US)
星等 :
--
Orbit Information
数据来源 国际轨道数据
星历时间: 2025-09-20T04:41:48+0800
轨道信息已过期265天
半长轴: 6591.782km
偏心率: 0.0013032
轨道倾角: 97.355°
近地点辐角 260.183°
升交点赤经 341.277°
平近点角 99.798°
近地点: 205.056km
远地点: 222.238km
周期: 88.770分钟
每日圈数: 16.221783
Detailed Information
使用方式:
暂无